Weather in Krukenichi

Ukraine / Lviv District     49°41′07″N   23°09′14″E
temp.,
°C
wind,
m/s
gust,
m/s
humid.,
%
clouds,
%
prec.,
mm/h
press.,
hPa
HPBL,
m
15 may, sat
sat1500:00+11wsw61294100 1.2 1007624
03:00+11w61195100 2.5 1008655
06:00+10w51094100 0.6 1009488
09:00+11w588685 0.6 1011584
12:00+15wnw666669 0.0 10111096
15:00+17w346072 0.0 10111300
18:00+15ssw21665 0.0 1010497
21:00+12se227874 0.0 101016
16 may, sun
sun1600:00+10se379261 0.0 1010124
03:00+9se3795100 0.0 1010148
06:00+9se3494100 0.0 100981
09:00+14sse3578100 0.0 1009268
12:00+18s236297 0.1 10081123
15:00+16sw2481100 2.4 1007300
18:00+17ssw3676100 0.8 1006940
21:00+13sw3587100 1.8 100676
17 may, mon
mon1700:00+12sw2388100 0.3 100756
03:00+11w229254 0.3 100835
06:00+11sw229298 0.0 100852
09:00+12sw128589 0.0 1008161
12:00+17s226247 0.1 10071343
15:00+19ene225590 0.2 10051135
18:00+13wnw7108992 0.9 1006470
21:00+11nw2698100 6.1 1007330
18 may, tue
tue1800:00+10w3996100 0.4 1007341
03:00+8w411962 0.4 1008311
06:00+8w411953 0.0 1009313
09:00+11w698529 0.0 1010594
12:00+15wnw586392 0.1 10101658
15:00+15wnw5765100 0.5 10101357
18:00+14w4574100 0.8 1011918
21:00+11wsw3385100 1.9 101239
19 may, wed
wed1900:00+9wsw22905 0.0 101329
03:00+7w229130 0.0 101223
06:00+6w229399 0.0 101218
09:00+10nw3486100 0.0 1013341
12:00+14nw4572100 0.0 10121014
15:00+14nw6876100 0.7 1011954
18:00+13nw6977100 0.8 1011729
21:00+11nw51182100 0.9 1012445